Regional Weather Roundup
Issued by NWS Kansas City/Pleasant Hill, MO

Home | Current Version | Previous Version | Graphics & Text | Print | Product List | Glossary Off
Versions: 1 2 3 4 5 6 7 8 9 10 11 12 13 14 15 16 17 18 19 20 21 22 23 24 25 26 27 28 29 30 31 32 33 34 35 36 37 38 39 40 41 42 43 44 45 46 47 48 49 50

000
ASUS43 KEAX 281804
RWREAX

WEATHER ROUNDUP FOR EASTERN KANSAS AND NORTHWEST MISSOURI
NATIONAL WEATHER SERVICE KANSAS CITY/PLEASANT HILL MO
1200 PM CST FRI NOV 28 2014

KSZ040-057-103>105-MOZ028-029-037-043-281900-
...KANSAS CITY METROPOLITAN AREA...

CITY           SKY/WX    TMP DP  RH WIND       PRES   REMARKS
K.C. INTL      PTSUNNY   50  30  46 SW17      29.89F
6HR MIN TEMP:  35; 6HR MAX TEMP:  51;

K.C. DOWNTOWN  SUNNY     55  30  38 SW14      29.89F
6HR MIN TEMP:  36; 6HR MAX TEMP:  55;

LEES SUMMIT    SUNNY     53  31  42 SW20G26   29.91F
6HR MIN TEMP:  34; 6HR MAX TEMP:  53;

OLATHE - IXD   SUNNY     52  31  44 S20G25    29.90F
6HR MIN TEMP:  32; 6HR MAX TEMP:  52;

OLATHE - OJC   SUNNY     52  31  44 SW16G22   29.90F
6HR MIN TEMP:  34; 6HR MAX TEMP:  52;

LAWRENCE       SUNNY     53  30  41 SW16      29.90F

$$

MOZ001>008-011>017-020>025-030>033-038>040-044>046-053-054-281900-
...NORTHERN AND CENTRAL MISSOURI...

CITY           SKY/WX    TMP DP  RH WIND       PRES   REMARKS
ST. JOSEPH     SUNNY     50  30  46 S14       29.87F
6HR MIN TEMP:  28; 6HR MAX TEMP:  51;

MOSBY          CLEAR     50  30  46 S13       29.90F
WARRENSBURG    SUNNY     54  32  43 SW16G24   29.93F
WHITEMAN AFB   SUNNY     54  31  42 SW21G26   29.92F
6HR MIN TEMP:  31; 6HR MAX TEMP:  54;

CLINTON        SUNNY     55  34  44 SW16G23   29.97F
SEDALIA        SUNNY     54  31  41 SW21G29   29.94F
6HR MIN TEMP:  33; 6HR MAX TEMP:  54;

WARSAW         NOT AVBL
MARSHALL       SUNNY     54  34  47 SW18      29.95F
CHILLICOTHE      N/A     46  31  55 S9        29.92F
6HR MIN TEMP:  30; 6HR MAX TEMP:  47;

KIRKSVILLE     SUNNY     45  31  58 SW12      29.91F
6HR MIN TEMP:  24; 6HR MAX TEMP:  45;


$$

MOZ041-047>049-056>058-063>065-088>090-097-281900-
...EASTERN AND SOUTHERN MISSOURI...

CITY           SKY/WX    TMP DP  RH WIND       PRES   REMARKS
ST. LOUIS INTL MOSUNNY   46  32  58 S16G22    30.07F
6HR MIN TEMP:  27; 6HR MAX TEMP:  46;

SPIRIT OF STL  MOSUNNY   49  31  49 S8G17     30.04F
COLUMBIA       SUNNY     52  31  44 SW15      29.97F
JEFFERSON CITY SUNNY     52  30  43 SW16G22   29.98F
MEXICO         SUNNY     52  36  54 SW15G22   29.97F
ROLLA          SUNNY     50  31  48 S22G28    30.00F
LEBANON        SUNNY     55  30  38 SW13G23   30.01F
OSAGE BEACH    SUNNY     57  32  38 SW15G21   29.98F
SPRINGFIELD    SUNNY     56  32  40 S18       30.01F
BRANSON        MOSUNNY   57  32  38 SW13G20   30.08F
JOPLIN         SUNNY     59  32  36 S25G36    29.99F
WEST PLAINS    SUNNY     48  30  49 S14       30.12F

$$

IAZ060-094-KSZ022-034>040-054-083-096-NEZ052-066-093-281900-
...KANSAS...SOUTHEAST NEBRASKA AND IOWA...

CITY           SKY/WX    TMP DP  RH WIND       PRES   REMARKS
TOPEKA         SUNNY     55  31  39 S10       29.89F
6HR MIN TEMP:  36; 6HR MAX TEMP:  55;

MANHATTAN      SUNNY     57  31  37 SW13      29.85F
EMPORIA        SUNNY     60  32  34 S16       29.88F
CHANUTE        SUNNY     55  32  41 S26G33    29.94F
WICHITA        MOSUNNY   56  33  42 S17       29.90F
OMAHA          PTSUNNY   42  28  57 S13       29.81F
LINCOLN        PTSUNNY   47  27  45 S8        29.79F
FALLS CITY     MOSUNNY   52  30  43 S9        29.83F
LAMONI         SUNNY     43  30  60 S10       29.86F
DES MOINES     PTSUNNY   37  26  64 S9        29.86F WCI  30

$$



USA.gov is the U.S. government's official web portal to all federal, state and local government web resources and services.